DAL1061 KATL-KAUS

Flight info

Callsign DAL1061
Flight time N/A
Altitude 40000
Route POUNC2 GRGIA GARTS LCH WEEED WLEEE7
Aircraft A359/H-SDE2E3GHIJ3J4J5LM1ORWXY/LB1D1

Departure

Time 2026-05-06 21:20
Airport Hartsfield Jackson Atlanta International Airport (KATL)

Arrival

Time N/A
Airport Austin Bergstrom International Airport (KAUS)
Time Latitude Longitude Altitude Speed Heading
2026-05-06 21:04 33.63833 -84.42516 1013 ft 0 kts 269°
2026-05-06 21:11 33.63833 -84.42509 1013 ft 4 kts 269°
2026-05-06 21:12 33.63833 -84.42476 1013 ft 4 kts 269°
2026-05-06 21:12 33.63833 -84.42448 1013 ft 4 kts 264°
2026-05-06 21:12 33.63841 -84.42422 1013 ft 4 kts 206°
2026-05-06 21:12 33.63866 -84.42417 1013 ft 4 kts 179°
2026-05-06 21:13 33.63880 -84.42417 1013 ft 1 kts 180°
2026-05-06 21:13 33.63881 -84.42417 1013 ft 0 kts 180°
2026-05-06 21:15 33.63874 -84.42417 1013 ft 4 kts 180°
2026-05-06 21:15 33.63820 -84.42420 1013 ft 11 kts 180°
2026-05-06 21:16 33.63721 -84.42417 1013 ft 17 kts 180°
2026-05-06 21:16 33.63657 -84.42337 1013 ft 15 kts 98°
2026-05-06 21:16 33.63655 -84.42209 1013 ft 17 kts 90°
2026-05-06 21:16 33.63656 -84.42060 1013 ft 19 kts 90°
2026-05-06 21:17 33.63656 -84.41887 1012 ft 22 kts 90°
2026-05-06 21:17 33.63655 -84.41713 1013 ft 19 kts 90°
2026-05-06 21:17 33.63655 -84.41540 1012 ft 22 kts 91°
2026-05-06 21:17 33.63654 -84.41352 1012 ft 24 kts 90°
2026-05-06 21:18 33.63655 -84.41149 1012 ft 21 kts 89°
2026-05-06 21:18 33.63655 -84.40996 1012 ft 15 kts 90°
2026-05-06 21:18 33.63646 -84.40864 1013 ft 13 kts 117°
2026-05-06 21:18 33.63568 -84.40825 1013 ft 13 kts 181°
2026-05-06 21:19 33.63488 -84.40849 1013 ft 11 kts 227°
2026-05-06 21:19 33.63472 -84.40897 1014 ft 0 kts 264°
2026-05-06 21:19 33.63472 -84.40900 1014 ft 3 kts 264°
2026-05-06 21:19 33.63471 -84.41122 1012 ft 61 kts 270°
2026-05-06 21:20 33.63471 -84.41899 1014 ft 125 kts 270°
2026-05-06 21:20 33.63483 -84.42704 1063 ft 157 kts 264°
2026-05-06 21:20 33.63511 -84.44424 2095 ft 151 kts 266°
2026-05-06 21:20 33.63493 -84.45723 2703 ft 165 kts 264°
2026-05-06 21:21 33.63463 -84.47216 3027 ft 193 kts 265°
2026-05-06 21:21 33.63450 -84.48880 3637 ft 205 kts 265°
2026-05-06 21:21 33.63443 -84.50683 4128 ft 227 kts 266°
2026-05-06 21:21 33.63441 -84.52625 4805 ft 237 kts 267°
2026-05-06 21:22 33.63444 -84.54621 5601 ft 241 kts 267°
2026-05-06 21:22 33.63447 -84.56659 6450 ft 244 kts 268°
2026-05-06 21:22 33.63450 -84.58699 7343 ft 245 kts 268°
2026-05-06 21:22 33.63452 -84.60753 8290 ft 248 kts 268°
2026-05-06 21:23 33.63453 -84.62833 9245 ft 250 kts 268°
2026-05-06 21:23 33.63454 -84.64932 10175 ft 252 kts 268°
2026-05-06 21:23 33.63457 -84.67104 10674 ft 271 kts 268°
2026-05-06 21:23 33.63466 -84.69456 11034 ft 292 kts 268°
2026-05-06 21:24 33.63386 -84.71961 11383 ft 310 kts 261°
2026-05-06 21:24 33.62787 -84.74462 11939 ft 319 kts 246°
2026-05-06 21:24 33.61774 -84.76861 12674 ft 324 kts 243°
2026-05-06 21:24 33.61049 -84.78469 13149 ft 327 kts 243°
2026-05-06 21:25 33.59597 -84.81694 14065 ft 334 kts 243°
2026-05-06 21:25 33.58496 -84.84151 14729 ft 337 kts 243°
2026-05-06 21:25 33.57744 -84.85833 15152 ft 339 kts 243°
2026-05-06 21:25 33.56636 -84.88313 15798 ft 342 kts 243°
2026-05-06 21:26 33.55510 -84.90832 16482 ft 344 kts 244°
2026-05-06 21:26 33.54372 -84.93378 17136 ft 348 kts 244°
2026-05-06 21:26 33.52833 -84.96820 18022 ft 352 kts 244°
2026-05-06 21:26 33.52066 -84.98534 18441 ft 354 kts 244°
2026-05-06 21:27 33.50903 -85.01132 19038 ft 357 kts 244°
2026-05-06 21:27 33.49724 -85.03763 19626 ft 360 kts 245°
2026-05-06 21:27 33.48530 -85.06426 20219 ft 364 kts 245°
2026-05-06 21:27 33.47326 -85.09111 20858 ft 366 kts 245°
2026-05-06 21:28 33.46117 -85.11804 21449 ft 369 kts 245°
2026-05-06 21:28 33.44904 -85.14504 22080 ft 372 kts 245°
2026-05-06 21:28 33.43671 -85.17247 22672 ft 375 kts 245°
2026-05-06 21:28 33.42459 -85.20022 23305 ft 377 kts 248°
2026-05-06 21:29 33.41537 -85.22807 23849 ft 377 kts 255°
2026-05-06 21:29 33.40767 -85.25821 24329 ft 380 kts 256°
2026-05-06 21:29 33.40022 -85.28873 24814 ft 384 kts 256°
2026-05-06 21:29 33.39269 -85.31953 25307 ft 388 kts 256°
2026-05-06 21:30 33.38505 -85.35059 25817 ft 392 kts 256°
2026-05-06 21:30 33.37726 -85.38214 26321 ft 396 kts 256°
2026-05-06 21:30 33.36941 -85.41387 26809 ft 400 kts 256°
2026-05-06 21:30 33.36159 -85.44548 27376 ft 403 kts 255°
2026-05-06 21:31 33.35360 -85.47766 27980 ft 405 kts 255°
2026-05-06 21:31 33.34552 -85.51022 28505 ft 410 kts 255°
2026-05-06 21:31 33.33734 -85.54308 28961 ft 414 kts 255°
2026-05-06 21:31 33.32905 -85.57629 29400 ft 418 kts 255°
2026-05-06 21:32 33.32071 -85.60967 29834 ft 421 kts 255°
2026-05-06 21:32 33.30380 -85.67727 30635 ft 426 kts 255°
2026-05-06 21:32 33.29527 -85.71131 31073 ft 428 kts 255°
2026-05-06 21:33 33.28671 -85.74542 31519 ft 429 kts 255°
2026-05-06 21:33 33.27811 -85.77966 31898 ft 430 kts 255°
2026-05-06 21:33 33.26954 -85.81391 32252 ft 432 kts 255°
2026-05-06 21:33 33.26083 -85.84844 32651 ft 434 kts 255°
2026-05-06 21:34 33.25211 -85.88295 33011 ft 434 kts 255°
2026-05-06 21:34 33.24350 -85.91700 33520 ft 431 kts 255°
2026-05-06 21:34 33.23484 -85.95122 34088 ft 427 kts 255°
2026-05-06 21:34 33.22738 -85.98068 34508 ft 424 kts 255°
2026-05-06 21:35 33.21916 -86.01311 34999 ft 420 kts 255°
2026-05-06 21:35 33.21073 -86.04631 35526 ft 415 kts 255°
2026-05-06 21:35 33.20239 -86.07910 36037 ft 410 kts 255°
2026-05-06 21:35 33.19489 -86.10858 36479 ft 406 kts 256°
2026-05-06 21:36 33.18685 -86.14018 36913 ft 403 kts 256°
2026-05-06 21:36 33.17874 -86.17197 37353 ft 400 kts 256°
2026-05-06 21:36 33.17081 -86.20306 37793 ft 395 kts 256°
2026-05-06 21:36 33.16280 -86.23442 38257 ft 392 kts 256°
2026-05-06 21:37 33.15490 -86.26528 38674 ft 389 kts 256°
2026-05-06 21:37 33.14702 -86.29608 38971 ft 387 kts 256°
2026-05-06 21:37 33.13916 -86.32674 39199 ft 386 kts 256°
2026-05-06 21:37 33.13129 -86.35742 39410 ft 386 kts 256°
2026-05-06 21:38 33.12506 -86.38168 39605 ft 385 kts 256°
2026-05-06 21:38 33.11752 -86.41098 39825 ft 384 kts 256°
2026-05-06 21:38 33.10994 -86.44044 39968 ft 384 kts 256°
2026-05-06 21:38 33.10255 -86.46909 39986 ft 384 kts 256°
2026-05-06 21:39 33.08801 -86.52082 39986 ft 386 kts 251°
2026-05-06 21:39 33.06225 -86.57426 39966 ft 396 kts 239°
2026-05-06 21:40 33.02338 -86.62216 39965 ft 408 kts 230°
2026-05-06 21:40 32.98010 -86.66556 39955 ft 410 kts 229°
2026-05-06 21:41 32.93595 -86.70871 39957 ft 410 kts 229°
2026-05-06 21:41 32.89194 -86.75203 39957 ft 410 kts 229°
2026-05-06 21:42 32.84810 -86.79543 39919 ft 410 kts 229°
2026-05-06 21:42 32.80432 -86.83887 39936 ft 415 kts 229°
2026-05-06 21:43 32.75980 -86.88296 39936 ft 417 kts 229°
2026-05-06 21:43 32.71515 -86.92703 39936 ft 417 kts 229°
2026-05-06 21:44 32.67139 -86.97017 39951 ft 417 kts 228°
2026-05-06 21:44 32.62683 -87.01406 39949 ft 416 kts 228°
2026-05-06 21:45 32.58273 -87.05746 39929 ft 416 kts 228°
2026-05-06 21:45 32.53836 -87.10111 39955 ft 418 kts 227°
2026-05-06 21:46 32.49344 -87.14519 39958 ft 419 kts 227°
2026-05-06 21:46 32.44845 -87.18926 39960 ft 419 kts 227°
2026-05-06 21:47 32.40348 -87.23325 39964 ft 419 kts 227°
2026-05-06 21:47 32.35855 -87.27716 39962 ft 419 kts 227°
2026-05-06 21:48 32.31586 -87.31884 39936 ft 419 kts 227°
2026-05-06 21:48 32.27095 -87.36267 39962 ft 423 kts 226°
2026-05-06 21:49 32.22547 -87.40696 39966 ft 424 kts 226°
2026-05-06 21:49 32.17996 -87.45117 39966 ft 424 kts 226°
2026-05-06 21:50 32.13568 -87.49414 39968 ft 424 kts 226°
2026-05-06 21:50 32.09012 -87.53832 39968 ft 424 kts 226°
2026-05-06 21:51 32.04450 -87.58250 39944 ft 424 kts 226°
2026-05-06 21:51 31.99873 -87.62680 39977 ft 428 kts 226°
2026-05-06 21:52 31.95255 -87.67142 39969 ft 429 kts 226°
2026-05-06 21:52 31.90663 -87.71568 39964 ft 429 kts 226°
2026-05-06 21:53 31.86040 -87.76021 39969 ft 430 kts 226°
2026-05-06 21:53 31.81412 -87.80472 39976 ft 430 kts 226°